Flag for Germany Weather past 2 weeks in Buchholz in der Nordheide, Lower Saxony, Germany

Now
86 °F

Passing clouds.


Feels Like: 85 °F
Forecast: 62 / 86 °F
Wind: 7 mph from South

Location: Hamburg-Finkenwerder

Current Time: Aug 3, 2015 at 8:09:23 PM

Latest Report: Aug 3, 2015 at 7:20 PM


Visibility: N/A

Pressure: 29.95 "Hg

Humidity: 35%

Dew point: 55 °F

Location of Buchholz in der NordheideLocation

Historic Weather in Buchholz in der Nordheide — Graph

°F

Buchholz in der Nordheide temperature yesterday

Past Weeks' High & Low Weather Summary

 TemperatureHumidityPressure
High88 °F (Aug 3, 4:20 PM)100% (Jul 20, 5:50 AM)30.09 "Hg (Jul 20, 5:50 AM)
Low52 °F (Aug 1, 7:20 AM)31% (Aug 3, 4:20 PM)29.45 "Hg (Jul 27, 2:50 PM)
Average64 °F73%29.82 "Hg
* Reported Jul 20 5:50 AM — Aug 3 6:50 PM, Buchholz in der Nordheide, Weather by CustomWeather, © 2015

Note: Actual official high and low records may vary slightly from our data, if they occured in-between our weather recording intervals... More about our weather records

Advertising

Buchholz in der Nordheide weather history for previous 24 hours

 ConditionsComfort  
Time TempWeatherWind HumidityBarometerVisibility
6:50 PM
Mon, Aug 3
86 °FPassing clouds.7 mph33%29.95 "HgN/A
6:20 PM86 °FPassing clouds.6 mph38%29.95 "HgN/A
5:50 PM88 °FPassing clouds.9 mph33%29.95 "HgN/A
5:20 PM88 °FPassing clouds.8 mph38%29.95 "HgN/A
4:50 PM88 °FPassing clouds.8 mph31%29.98 "HgN/A
4:20 PM88 °FPassing clouds.7 mph31%29.98 "HgN/A
3:50 PM86 °FPassing clouds.7 mph38%29.98 "HgN/A
3:20 PM84 °FPassing clouds.8 mph43%29.98 "HgN/A
2:50 PM84 °FPassing clouds.8 mph40%30.01 "HgN/A
2:20 PM84 °FPassing clouds.9 mph40%30.01 "HgN/A
1:50 PM82 °FPassing clouds.9 mph42%30.01 "HgN/A
1:20 PM81 °FPassing clouds.10 mph42%30.01 "HgN/A
12:50 PM79 °FPassing clouds.8 mph51%30.01 "HgN/A
12:20 PM77 °FPassing clouds.9 mph51%30.04 "HgN/A
11:50 AM75 °FPassing clouds.9 mph50%30.04 "HgN/A
11:20 AM73 °FPassing clouds.10 mph53%30.04 "HgN/A
10:50 AM72 °FPassing clouds.9 mph57%30.07 "HgN/A
10:20 AM70 °FSunny.12 mph57%30.07 "Hg10 mi
9:50 AM68 °FPassing clouds.12 mph56%30.07 "HgN/A
9:20 AM66 °FPassing clouds.8 mph60%30.07 "HgN/A
8:50 AM64 °FPassing clouds.7 mph64%30.07 "HgN/A
8:20 AM63 °FPassing clouds.7 mph64%30.07 "HgN/A
7:50 AM61 °FPassing clouds.8 mph68%30.07 "HgN/A
7:20 AM61 °FPassing clouds.7 mph68%30.07 "HgN/A
6:50 AM59 °FPassing clouds.7 mph72%30.07 "HgN/A
6:20 AM61 °FPassing clouds.6 mph68%30.07 "HgN/A
5:50 AM59 °FPassing clouds.6 mph72%30.07 "HgN/A
Weather by CustomWeather, © 2015

See weather overviewHow to use our weather pages